EA3ANS-1 Weather Reports


Display with metric or nautical units.
time (UTC)temp
F
wind
direction
speed
MPH
gust
MPH
rain 1hr
in
rain 24hr
in
rain mn
in
humidity
%
barometer
mb
20260510152315 74 203 7.0 5.0 0.00 0.33 0.01 1009.0
20260510151314 75 233 9.0 9.0 0.00 0.33 0.01 1009.1
20260510150315 74 229 10.0 10.0 0.00 0.33 0.01 1009.3
20260510145307 73 193 13.0 14.0 0.00 0.33 0.01 1009.4
20260510144309 74 243 12.0 9.0 0.00 0.33 0.01 1009.3
20260510143244 74 186 6.0 14.0 0.00 0.33 0.01 1009.4
20260510142226 74 221 11.0 6.0 0.00 0.33 0.01 1009.8
20260510141225 73 240 11.0 13.0 0.00 0.33 0.01 1009.8
20260510140205 72 226 12.0 12.0 0.00 0.33 0.01 1010.0
20260510135208 73 224 13.0 9.0 0.00 0.33 0.01 1010.1
20260510134159 72 211 10.0 6.0 0.00 0.33 0.01 1010.2
20260510133202 73 236 12.0 17.0 0.00 0.33 0.01 1010.3
20260510132205 75 248 10.0 8.0 0.00 0.33 0.01 1010.2
20260510131202 74 277 6.0 7.0 0.00 0.33 0.01 1010.4
20260510130144 75 215 7.0 8.0 0.00 0.33 0.01 1010.4
20260510125122 72 180 8.0 6.0 0.00 0.33 0.01 1010.5
20260510124109 71 156 9.0 5.0 0.00 0.33 0.01 1010.7
20260510123112 71 160 11.0 11.0 0.00 0.33 0.01 1010.5
20260510122111 71 215 11.0 10.0 0.00 0.33 0.01 1010.9
20260510121112 71 225 11.0 11.0 0.00 0.33 0.01 1011.1
20260510120115 70 243 9.0 10.0 0.00 0.33 0.01 1011.2
20260510115112 70 203 6.0 10.0 0.00 0.33 0.01 1011.3
20260510114102 70 194 5.0 7.0 0.00 0.33 0.01 1011.4
20260510113037 72 259 5.0 3.0 0.00 0.33 0.01 1011.4
20260510112030 71 193 7.0 7.0 0.00 0.33 0.01 1011.4
20260510111027 70 204 9.0 8.0 0.00 0.33 0.01 1011.5
20260510110024 70 236 8.0 13.0 0.00 0.33 0.01 1011.6
20260510105028 70 218 9.0 10.0 0.00 0.33 0.01 1011.7
20260510104029 69 246 13.0 14.0 0.00 0.33 0.01 1011.9
20260510102956 69 204 11.0 8.0 0.00 0.33 0.01 1011.9
20260510101958 69 176 5.0 9.0 0.00 0.33 0.01 1011.9
20260510100943 68 204 7.0 9.0 0.00 0.33 0.01 1012.0
20260510095945 68 219 6.0 6.0 0.00 0.33 0.01 1012.1
20260510094940 67 236 6.0 7.0 0.00 0.33 0.01 1012.1
20260510093931 67 276 6.0 8.0 0.00 0.33 0.01 1012.3
20260510092921 67 243 8.0 7.0 0.00 0.33 0.01 1012.2
20260510091918 66 217 5.0 9.0 0.00 0.33 0.01 1012.3
20260510090909 66 212 7.0 6.0 0.00 0.33 0.01 1012.3
20260510085859 65 245 6.0 8.0 0.00 0.33 0.01 1012.4
20260510084857 64 312 3.0 2.0 0.00 0.33 0.01 1012.4
20260510083858 63 172 3.0 2.0 0.00 0.33 0.01 1012.5
20260510082832 62 148 3.0 1.0 0.00 0.33 0.01 1012.6
20260510081826 62 311 2.0 3.0 0.00 0.33 0.01 1012.6
20260510080816 59 17 3.0 3.0 0.00 0.33 0.01 1012.6
20260510075759 59 328 5.0 4.0 0.00 0.33 0.01 1012.5
20260510074749 59 298 3.0 4.0 0.00 0.33 0.01 1012.5
20260510073743 59 288 4.0 4.0 0.00 0.33 0.01 1012.3
20260510072720 58 314 2.0 4.0 0.00 0.33 0.01 1012.4
20260510071723 57 333 5.0 4.0 0.00 0.33 0.01 1012.4
20260510070725 57 21 4.0 3.0 0.00 0.33 0.01 1012.5
20260510065653 56 307 4.0 5.0 0.00 0.33 0.01 1012.6
20260510064654 56 345 1.0 2.0 0.00 0.33 0.01 1012.5
20260510063646 55 353 5.0 3.0 0.00 0.33 0.01 1012.5
20260510062644 55 343 5.0 3.0 0.00 0.33 0.01 1012.5
20260510061645 55 297 5.0 5.0 0.00 0.33 0.01 1012.4
20260510060627 54 345 0.0 0.0 0.00 0.33 0.01 1012.2
20260510055628 53 345 0.0 0.0 0.00 0.33 0.01 1012.2
20260510054549 52 345 0.0 0.0 0.01 0.33 0.01 1012.3
20260510053550 52 345 0.0 0.0 0.01 0.33 0.01 1012.2
20260510052547 52 345 0.0 0.0 0.01 0.33 0.01 1012.0
20260510051549 51 345 0.0 0.0 0.01 0.33 0.01 1012.1
20260510050546 52 345 0.0 0.0 0.01 0.33 0.01 1012.3
20260510045546 52 345 0.0 0.0 0.01 0.33 0.01 1012.3
20260510044539 52 345 0.0 0.0 0.00 0.33 0.01 1012.2
20260510043521 52 345 0.0 0.0 0.00 0.33 0.01 1012.5
20260510042521 52 345 0.0 0.0 0.00 0.33 0.01 1012.5
20260510041524 52 345 0.0 0.0 0.00 0.33 0.00 1012.3
20260510040511 52 345 0.0 0.0 0.00 0.33 0.00 1012.4
20260510035503 53 345 0.0 0.0 0.00 0.33 0.00 1012.4
20260510034457 52 345 0.0 0.0 0.00 0.33 0.00 1012.4
20260510033453 52 345 0.0 0.0 0.00 0.33 0.00 1012.5
20260510032450 53 345 0.0 0.0 0.00 0.33 0.00 1012.4
20260510031445 53 345 0.0 0.0 0.00 0.33 0.00 1012.4
20260510030445 53 345 0.0 0.0 0.00 0.33 0.00 1012.4
20260510025448 53 345 0.0 0.0 0.00 0.33 0.00 1012.5
20260510024448 54 345 0.0 0.0 0.00 0.33 0.00 1012.6
20260510023450 53 345 0.0 0.0 0.00 0.33 0.00 1012.6
20260510022453 53 345 0.0 0.0 0.00 0.33 0.00 1012.8
20260510021436 54 345 0.0 0.0 0.00 0.33 0.00 1012.8
20260510020433 54 345 0.0 0.0 0.00 0.33 0.00 1012.8
20260510015431 55 345 0.0 0.0 0.00 0.33 0.00 1012.7
20260510014431 54 345 0.0 0.0 0.00 0.33 0.00 1012.7
20260510013432 54 302 0.0 0.0 0.00 0.33 0.00 1012.6
20260510012433 54 302 0.0 0.0 0.00 0.33 0.00 1012.4
20260510011435 55 304 0.0 0.0 0.00 0.33 0.00 1012.4
20260510010432 54 304 0.0 0.0 0.00 0.33 0.00 1012.5
20260510005426 54 311 0.0 0.0 0.00 0.33 0.00 1012.5
20260510004429 54 326 4.0 4.0 0.00 0.33 0.00 1012.7
20260510003431 55 38 0.0 0.0 0.00 0.33 0.00 1012.7
20260510002429 55 38 0.0 0.0 0.00 0.33 0.00 1012.8
20260510001432 55 38 0.0 0.0 0.00 0.33 0.00 1012.9
20260510000426 55 38 0.0 0.0 0.00 0.33 0.00 1012.9
20260509235415 55 38 0.0 0.0 0.00 0.33 0.00 1013.2
20260509234416 55 38 0.0 0.0 0.00 0.33 0.00 1013.4
20260509233417 55 38 0.0 0.0 0.00 0.33 0.00 1013.4
20260509232415 55 38 0.0 0.0 0.00 0.33 0.00 1013.3
20260509231417 55 38 0.0 0.0 0.00 0.33 0.00 1013.4
20260509230420 56 38 0.0 0.0 0.00 0.33 0.00 1013.3
20260509225416 56 38 0.0 0.0 0.00 0.33 0.00 1013.4
20260509224411 56 38 0.0 0.0 0.00 0.33 0.00 1013.4
20260509223414 57 38 0.0 0.0 0.00 0.33 0.00 1013.4
20260509222412 57 38 0.0 0.0 0.00 0.33 0.00 1013.4
20260509221409 57 84 0.0 0.0 0.00 0.33 0.00 1013.3
20260509220412 58 84 0.0 0.0 0.00 0.33 0.00 1013.3
20260509215410 58 304 0.0 0.0 0.00 0.00 0.33 1013.3
20260509214413 58 304 0.0 0.0 0.00 0.00 0.33 1013.3
20260509213347 58 304 0.0 0.0 0.00 0.00 0.33 1013.4
20260509212347 58 304 0.0 0.0 0.00 0.00 0.33 1013.2
20260509211339 58 319 1.0 0.0 0.00 0.00 0.33 1013.2
20260509210340 58 290 0.0 0.0 0.00 0.00 0.33 1013.2
20260509205338 57 290 0.0 0.0 0.00 0.00 0.33 1012.9
20260509204323 57 291 2.0 1.0 0.00 0.00 0.33 1012.9
20260509203325 57 342 0.0 0.0 0.00 0.00 0.33 1012.7
20260509202322 58 304 2.0 2.0 0.00 0.00 0.33 1012.5
20260509201312 57 252 2.0 2.0 0.00 0.00 0.33 1012.4
20260509194314 58 66 1.0 1.0 0.00 0.00 0.33 1011.7
20260509193313 58 25 0.0 0.0 0.00 0.00 0.33 1011.7
20260509192315 58 25 0.0 0.0 0.00 0.00 0.33 1011.6
20260509191259 58 25 0.0 0.0 0.00 0.00 0.33 1011.5
20260509190246 58 82 2.0 1.0 0.00 0.00 0.33 1011.3
20260509185249 58 129 3.0 1.0 0.03 0.00 0.33 1011.2
20260509184243 58 159 3.0 5.0 0.03 0.00 0.33 1011.0
20260509183243 58 141 3.0 4.0 0.03 0.00 0.33 1010.5
20260509182231 59 24 0.0 0.0 0.03 0.00 0.33 1010.3
20260509181149 58 24 2.0 0.0 0.03 0.00 0.33 1010.1
20260509175040 59 79 2.0 2.0 0.13 0.00 0.33 1010.1
20260509173936 58 35 7.0 2.0 0.13 0.00 0.33 1009.9
20260509172510 58 359 6.0 7.0 0.13 0.00 0.33 1009.6
20260509171443 58 15 3.0 4.0 0.13 0.00 0.32 1009.7
20260509170444 58 318 4.0 6.0 0.13 0.00 0.31 1010.1
20260509165443 58 343 3.0 3.0 0.14 0.00 0.30 1010.8
20260509164434 58 330 0.0 0.0 0.14 0.00 0.28 1011.3
20260509163419 58 350 3.0 5.0 0.14 0.00 0.26 1011.7
20260509162422 59 6 3.0 4.0 0.14 0.00 0.23 1012.0
20260509161416 59 53 3.0 2.0 0.14 0.00 0.21 1012.4
20260509160419 58 207 0.0 0.0 0.14 0.00 0.20 1012.7
20260509155419 58 228 3.0 1.0 0.03 0.00 0.17 1012.7
20260509154416 58 193 6.0 2.0 0.03 0.00 0.14 1012.6
20260509153419 59 231 6.0 4.0 0.03 0.00 0.12 1012.7